| time (UTC) | temp F | wind direction | speed knots | gust knots | rain 1hr in | rain 24hr in | rain mn in | humidity % | barometer mb |
| 20260502170512 | 56 | 9 | 0.9 | 0.9 | 0.07 | 0.12 | 0.12 | 89 | 1011.9 |
| 20260502163955 | 56 | 17 | 1.7 | 2.6 | 0.00 | 0.11 | 0.11 | 89 | 1011.5 |
| 20260502163450 | 56 | 351 | 2.6 | 4.3 | 0.00 | 0.11 | 0.11 | 90 | 1011.4 |
| 20260502162949 | 56 | 11 | 0.9 | 0.9 | 0.00 | 0.11 | 0.11 | 91 | 1011.2 |
| 20260502162445 | 57 | 0 | 3.5 | 4.3 | 0.00 | 0.11 | 0.11 | 91 | 1011.1 |
| 20260502161942 | 57 | 32 | 0.9 | 1.7 | 0.00 | 0.11 | 0.11 | 91 | 1011.2 |
| 20260502161438 | 57 | 18 | 0.9 | 1.7 | 0.00 | 0.11 | 0.11 | 91 | 1011.1 |
| 20260502160937 | 57 | 5 | 3.5 | 4.3 | 0.00 | 0.11 | 0.11 | 91 | 1011.1 |
| 20260502160435 | 57 | 18 | 0.9 | 0.9 | 0.00 | 0.11 | 0.11 | 91 | 1011.1 |
| 20260502151918 | 56 | 14 | 0.0 | 0.0 | 0.00 | 0.08 | 0.08 | 92 | 1012.0 |
| 20260502151415 | 56 | 12 | 0.9 | 0.9 | 0.00 | 0.08 | 0.08 | 91 | 1012.0 |
| 20260502150912 | 56 | 19 | 0.9 | 0.9 | 0.07 | 0.08 | 0.08 | 91 | 1012.1 |
| 20260502150408 | 57 | 17 | 0.9 | 1.7 | 0.07 | 0.08 | 0.08 | 91 | 1011.9 |
| 20260502130255 | 55 | 22 | 0.0 | 0.0 | 0.00 | 0.07 | 0.07 | 95 | 1010.6 |
| 20260502123740 | 54 | 21 | 0.0 | 0.9 | 0.05 | 0.05 | 0.05 | 94 | 1011.0 |
| 20260502123237 | 54 | 19 | 0.0 | 0.0 | 0.00 | 0.04 | 0.04 | 94 | 1011.1 |
| 20260502122734 | 54 | 4 | 0.0 | 0.9 | 0.00 | 0.04 | 0.04 | 94 | 1010.9 |
| 20260502122230 | 54 | 14 | 0.0 | 0.9 | 0.00 | 0.04 | 0.04 | 94 | 1010.9 |
| 20260502121728 | 54 | 17 | 0.9 | 1.7 | 0.00 | 0.04 | 0.04 | 94 | 1010.9 |
| 20260502121226 | 54 | 15 | 0.9 | 0.9 | 0.00 | 0.04 | 0.04 | 94 | 1010.8 |
| 20260502120722 | 54 | 7 | 0.0 | 0.9 | 0.00 | 0.04 | 0.04 | 94 | 1010.8 |
| 20260502120219 | 54 | 2 | 0.9 | 1.7 | 0.07 | 0.04 | 0.04 | 94 | 1011.1 |
| 20260502115717 | 54 | 0 | 0.9 | 0.9 | 0.07 | 0.04 | 0.04 | 94 | 1011.0 |
| 20260502115213 | 54 | 11 | 0.9 | 0.9 | 0.00 | 0.03 | 0.03 | 94 | 1011.1 |
| 20260502114709 | 54 | 2 | 0.0 | 0.9 | 0.07 | 0.03 | 0.03 | 93 | 1011.2 |
| 20260502114207 | 54 | 16 | 0.0 | 0.0 | 0.07 | 0.03 | 0.03 | 93 | 1011.2 |
| 20260502113704 | 54 | 5 | 0.0 | 0.0 | 0.00 | 0.02 | 0.02 | 93 | 1011.4 |
| 20260502113201 | 54 | 8 | 0.0 | 0.0 | 0.00 | 0.02 | 0.02 | 93 | 1011.3 |
| 20260502112659 | 54 | 11 | 0.0 | 0.0 | 0.00 | 0.02 | 0.02 | 93 | 1011.2 |
| 20260502112156 | 54 | 357 | 0.0 | 0.0 | 0.05 | 0.02 | 0.02 | 93 | 1011.2 |
| 20260502111654 | 54 | 12 | 0.0 | 0.0 | 0.05 | 0.02 | 0.02 | 93 | 1011.0 |
| 20260502111151 | 54 | 9 | 0.0 | 0.0 | 0.00 | 0.01 | 0.01 | 93 | 1011.0 |
| 20260502110649 | 54 | 10 | 0.0 | 0.0 | 0.00 | 0.01 | 0.01 | 92 | 1011.0 |
| 20260502110146 | 54 | 12 | 0.0 | 0.0 | 0.00 | 0.01 | 0.01 | 92 | 1011.0 |
| 20260502105643 | 54 | 5 | 0.0 | 0.0 | 0.00 | 0.01 | 0.01 | 92 | 1011.1 |
| 20260502105140 | 54 | 13 | 0.0 | 0.0 | 0.07 | 0.01 | 0.01 | 92 | 1011.0 |
| 20260502104637 | 54 | 12 | 0.0 | 0.0 | 0.07 | 0.01 | 0.01 | 92 | 1011.0 |
| 20260502104135 | 54 | 7 | 0.0 | 0.0 | 0.00 | 0.00 | 0.00 | 92 | 1011.0 |
| 20260502103632 | 54 | 6 | 0.0 | 0.0 | 0.00 | 0.00 | 0.00 | 92 | 1010.7 |
| 20260502103130 | 54 | 356 | 0.0 | 0.0 | 0.00 | 0.00 | 0.00 | 92 | 1010.7 |
| 20260502102627 | 54 | 346 | 0.0 | 0.0 | 0.00 | 0.00 | 0.00 | 92 | 1010.8 |
| 20260502102123 | 54 | 342 | 0.0 | 0.0 | 0.00 | 0.00 | 0.00 | 92 | 1010.8 |
| 20260502101621 | 55 | 358 | 0.0 | 0.0 | 0.00 | 0.00 | 0.00 | 92 | 1010.8 |
| 20260502101120 | 55 | 351 | 0.0 | 0.0 | 0.00 | 0.00 | 0.00 | 91 | 1010.6 |
| 20260502100618 | 55 | 350 | 0.0 | 0.0 | 0.00 | 0.00 | 0.00 | 91 | 1010.5 |
| 20260502100116 | 55 | 358 | 0.0 | 0.0 | 0.00 | 0.00 | 0.00 | 91 | 1010.5 |
| 20260502091044 | 54 | 11 | 0.0 | 0.0 | 0.00 | 0.00 | 0.00 | 93 | 1010.3 |
| 20260502090541 | 54 | 358 | 0.9 | 0.9 | 0.00 | 0.00 | 0.00 | 93 | 1010.2 |
| 20260502071435 | 53 | 341 | 0.9 | 0.9 | 0.00 | 0.00 | 0.00 | 94 | 1009.9 |
| 20260502070933 | 53 | 350 | 0.9 | 0.9 | 0.00 | 0.00 | 0.00 | 94 | 1010.0 |
| 20260502070431 | 53 | 358 | 0.9 | 0.9 | 0.00 | 0.00 | 0.00 | 94 | 1009.7 |
| 20260502065929 | 53 | 358 | 0.9 | 0.9 | 0.00 | 0.00 | 0.00 | 94 | 1010.1 |
| 20260502065427 | 53 | 350 | 0.9 | 0.9 | 0.00 | 0.00 | 0.00 | 94 | 1010.1 |
| 20260502064925 | 53 | 9 | 0.0 | 0.0 | 0.00 | 0.00 | 0.00 | 94 | 1010.3 |
| 20260502064423 | 53 | 344 | 0.0 | 0.0 | 0.00 | 0.00 | 0.00 | 94 | 1010.3 |
| 20260502063920 | 53 | 347 | 0.9 | 0.9 | 0.00 | 0.00 | 0.00 | 94 | 1009.9 |
| 20260502063417 | 53 | 356 | 0.9 | 0.9 | 0.00 | 0.00 | 0.00 | 94 | 1010.2 |
| 20260502062915 | 53 | 349 | 0.9 | 0.9 | 0.00 | 0.00 | 0.00 | 94 | 1010.2 |
| 20260502062412 | 53 | 0 | 0.0 | 0.0 | 0.00 | 0.00 | 0.00 | 94 | 1010.5 |
| 20260502061911 | 53 | 0 | 0.0 | 0.0 | 0.00 | 0.00 | 0.00 | 94 | 1010.6 |
| 20260502061409 | 53 | 343 | 0.9 | 0.9 | 0.00 | 0.00 | 0.00 | 94 | 1010.6 |
| 20260502060904 | 53 | 343 | 0.0 | 0.0 | 0.00 | 0.00 | 0.00 | 94 | 1010.7 |
| 20260502060359 | 53 | 357 | 0.0 | 0.0 | 0.00 | 0.00 | 0.00 | 94 | 1011.0 |
| 20260502055857 | 53 | 319 | 0.9 | 0.9 | 0.00 | 0.00 | 0.00 | 94 | 1010.9 |
| 20260502055354 | 53 | 334 | 0.0 | 0.0 | 0.00 | 0.00 | 0.00 | 94 | 1010.8 |
| 20260502054854 | 53 | 1 | 0.0 | 0.0 | 0.00 | 0.00 | 0.00 | 94 | 1011.0 |
| 20260502054351 | 53 | 341 | 0.9 | 0.9 | 0.00 | 0.00 | 0.00 | 94 | 1011.1 |
| 20260502053849 | 53 | 356 | 0.0 | 0.0 | 0.00 | 0.00 | 0.00 | 94 | 1011.1 |
| 20260502053345 | 53 | 337 | 0.9 | 0.9 | 0.00 | 0.00 | 0.00 | 94 | 1011.2 |
| 20260502052843 | 53 | 350 | 0.0 | 0.9 | 0.00 | 0.00 | 0.00 | 94 | 1011.1 |
| 20260502052341 | 53 | 349 | 0.9 | 0.9 | 0.00 | 0.00 | 0.00 | 93 | 1011.5 |
| 20260502051839 | 53 | 346 | 0.0 | 0.9 | 0.00 | 0.00 | 0.00 | 93 | 1011.3 |
| 20260502051337 | 53 | 332 | 0.0 | 0.9 | 0.00 | 0.00 | 0.00 | 93 | 1011.5 |
| 20260502050833 | 53 | 344 | 0.9 | 0.9 | 0.00 | 0.00 | 0.00 | 93 | 1011.5 |
| 20260502050330 | 53 | 359 | 0.9 | 0.9 | 0.00 | 0.00 | 0.00 | 93 | 1011.2 |
| 20260502045827 | 53 | 352 | 0.0 | 0.9 | 0.00 | 0.00 | 0.00 | 93 | 1011.6 |
| 20260502045323 | 53 | 358 | 0.0 | 0.0 | 0.00 | 0.00 | 0.00 | 93 | 1011.6 |
| 20260502044821 | 53 | 341 | 0.0 | 0.0 | 0.00 | 0.00 | 0.00 | 93 | 1011.4 |
| 20260502044317 | 53 | 7 | 0.0 | 0.0 | 0.00 | 0.00 | 0.00 | 93 | 1011.7 |
| 20260502043814 | 53 | 326 | 0.0 | 0.0 | 0.00 | 0.00 | 0.00 | 93 | 1011.7 |
| 20260502043312 | 53 | 7 | 0.0 | 0.0 | 0.00 | 0.00 | 0.00 | 93 | 1011.6 |
| 20260502042811 | 53 | 344 | 0.0 | 0.0 | 0.00 | 0.00 | 0.00 | 93 | 1011.6 |
| 20260502042309 | 53 | 22 | 0.0 | 0.0 | 0.00 | 0.00 | 0.00 | 93 | 1011.7 |
| 20260502041806 | 53 | 358 | 0.0 | 0.0 | 0.00 | 0.00 | 0.00 | 93 | 1012.0 |
| 20260502041303 | 53 | 311 | 0.0 | 0.0 | 0.00 | 0.00 | 0.00 | 93 | 1012.0 |
| 20260502040800 | 53 | 337 | 0.0 | 0.0 | 0.00 | 0.00 | 0.00 | 93 | 1011.9 |
| 20260502040257 | 53 | 344 | 0.0 | 0.0 | 0.00 | 0.00 | 0.00 | 93 | 1012.2 |
| 20260502035753 | 53 | 311 | 0.0 | 0.0 | 0.00 | 0.02 | 0.02 | 93 | 1012.2 |
| 20260502035249 | 53 | 17 | 0.0 | 0.0 | 0.00 | 0.02 | 0.02 | 92 | 1012.1 |
| 20260502034747 | 54 | 7 | 0.0 | 0.0 | 0.00 | 0.02 | 0.02 | 92 | 1012.2 |
| 20260502034245 | 54 | 347 | 0.0 | 0.0 | 0.00 | 0.02 | 0.02 | 92 | 1012.1 |
| 20260502033743 | 54 | 317 | 0.0 | 0.0 | 0.00 | 0.02 | 0.02 | 92 | 1012.2 |
| 20260502033241 | 54 | 359 | 0.0 | 0.0 | 0.00 | 0.02 | 0.02 | 92 | 1012.2 |
| 20260502032737 | 53 | 344 | 0.0 | 0.0 | 0.00 | 0.02 | 0.02 | 92 | 1012.1 |
| 20260502032233 | 54 | 23 | 0.0 | 0.0 | 0.00 | 0.02 | 0.02 | 92 | 1012.1 |
| 20260502031731 | 53 | 4 | 0.0 | 0.0 | 0.00 | 0.02 | 0.02 | 92 | 1012.3 |
| 20260502031229 | 53 | 349 | 0.0 | 0.0 | 0.00 | 0.02 | 0.02 | 91 | 1012.1 |
| 20260502030728 | 53 | 30 | 0.0 | 0.0 | 0.00 | 0.02 | 0.02 | 91 | 1012.3 |
| 20260502030225 | 54 | 11 | 0.0 | 0.0 | 0.00 | 0.02 | 0.02 | 91 | 1012.2 |
| 20260502025722 | 54 | 335 | 0.9 | 1.7 | 0.00 | 0.02 | 0.02 | 91 | 1012.5 |
| 20260502025220 | 54 | 62 | 0.0 | 0.0 | 0.00 | 0.02 | 0.02 | 91 | 1012.4 |
| 20260502024717 | 53 | 98 | 0.9 | 0.9 | 0.00 | 0.02 | 0.02 | 91 | 1012.4 |
| 20260502024216 | 53 | 250 | 0.0 | 0.0 | 0.00 | 0.02 | 0.02 | 92 | 1012.7 |
| 20260502023713 | 53 | 320 | 0.0 | 0.9 | 0.00 | 0.02 | 0.02 | 91 | 1012.6 |
| 20260502023210 | 53 | 331 | 0.9 | 0.9 | 0.00 | 0.02 | 0.02 | 91 | 1012.7 |
| 20260502022708 | 53 | 328 | 0.0 | 0.0 | 0.00 | 0.02 | 0.02 | 91 | 1012.9 |
| 20260502022204 | 53 | 359 | 0.0 | 0.0 | 0.00 | 0.02 | 0.02 | 91 | 1012.7 |
| 20260502021701 | 53 | 325 | 0.0 | 0.0 | 0.00 | 0.02 | 0.02 | 90 | 1012.6 |
| 20260502021159 | 53 | 317 | 0.0 | 0.0 | 0.00 | 0.02 | 0.02 | 90 | 1012.7 |
| 20260502020655 | 53 | 11 | 0.0 | 0.0 | 0.00 | 0.02 | 0.02 | 89 | 1012.8 |
| 20260502020152 | 54 | 340 | 0.9 | 0.9 | 0.00 | 0.02 | 0.02 | 89 | 1012.8 |
| 20260502015650 | 54 | 337 | 0.9 | 0.9 | 0.00 | 0.02 | 0.02 | 88 | 1012.7 |
| 20260502015146 | 55 | 46 | 0.0 | 0.0 | 0.00 | 0.02 | 0.02 | 87 | 1012.7 |
| 20260502014644 | 55 | 24 | 0.0 | 0.0 | 0.00 | 0.02 | 0.02 | 86 | 1012.6 |
| 20260502014141 | 55 | 128 | 0.0 | 0.9 | 0.00 | 0.02 | 0.02 | 85 | 1012.8 |
| 20260502013637 | 55 | 127 | 0.0 | 0.9 | 0.00 | 0.02 | 0.02 | 85 | 1012.7 |
| 20260502013132 | 55 | 135 | 2.6 | 2.6 | 0.00 | 0.02 | 0.02 | 83 | 1012.9 |
| 20260502012630 | 55 | 144 | 0.0 | 0.0 | 0.00 | 0.02 | 0.02 | 87 | 1012.8 |
| 20260502012128 | 55 | 335 | 0.0 | 0.0 | 0.00 | 0.02 | 0.02 | 86 | 1012.8 |
| 20260502011624 | 55 | 71 | 0.0 | 0.0 | 0.00 | 0.02 | 0.02 | 85 | 1012.8 |
| 20260502011120 | 55 | 139 | 0.0 | 0.0 | 0.00 | 0.02 | 0.02 | 84 | 1012.4 |
| 20260502010618 | 56 | 344 | 0.0 | 0.0 | 0.12 | 0.02 | 0.02 | 84 | 1012.8 |
| 20260502010114 | 56 | 93 | 0.0 | 0.0 | 0.12 | 0.02 | 0.02 | 82 | 1012.5 |
| 20260502005612 | 57 | 244 | 0.9 | 0.9 | 0.00 | 0.00 | 0.00 | 79 | 1012.7 |
| 20260502005110 | 57 | 175 | 0.9 | 0.9 | 0.00 | 0.00 | 0.00 | 79 | 1012.8 |
| 20260502004605 | 57 | 158 | 0.0 | 0.0 | 0.00 | 0.00 | 0.00 | 78 | 1012.9 |
| 20260502004102 | 57 | 111 | 1.7 | 1.7 | 0.00 | 0.00 | 0.00 | 79 | 1012.8 |
| 20260502003600 | 57 | 150 | 0.9 | 0.9 | 0.00 | 0.00 | 0.00 | 79 | 1012.8 |
| 20260502003056 | 57 | 120 | 1.7 | 1.7 | 0.00 | 0.00 | 0.00 | 78 | 1012.5 |
| 20260502002553 | 57 | 186 | 0.0 | 0.0 | 0.00 | 0.00 | 0.00 | 77 | 1012.6 |
| 20260502002050 | 57 | 118 | 1.7 | 1.7 | 0.00 | 0.00 | 0.00 | 76 | 1012.5 |
| 20260502001548 | 58 | 121 | 0.9 | 0.9 | 0.00 | 0.00 | 0.00 | 75 | 1013.0 |
| 20260502001045 | 58 | 182 | 0.9 | 0.9 | 0.00 | 0.00 | 0.00 | 74 | 1012.9 |
| 20260502000543 | 58 | 126 | 2.6 | 2.6 | 0.00 | 0.00 | 0.00 | 75 | 1012.9 |
| 20260502000040 | 58 | 159 | 1.7 | 1.7 | 0.00 | 0.00 | 0.00 | 76 | 1012.8 |
| 20260501235536 | 58 | 155 | 1.7 | 1.7 | 0.00 | 0.00 | 0.00 | 75 | 1012.2 |
| 20260501235032 | 58 | 88 | 1.7 | 1.7 | 0.00 | 0.00 | 0.00 | 75 | 1011.8 |
| 20260501234527 | 57 | 111 | 0.9 | 1.7 | 0.00 | 0.00 | 0.00 | 80 | 1012.1 |
| 20260501234025 | 57 | 256 | 0.9 | 0.9 | 0.00 | 0.00 | 0.00 | 82 | 1012.0 |
| 20260501233524 | 57 | 94 | 0.0 | 0.0 | 0.00 | 0.00 | 0.00 | 82 | 1011.7 |
| 20260501233020 | 57 | 130 | 0.0 | 0.0 | 0.00 | 0.00 | 0.00 | 83 | 1012.0 |
| 20260501232516 | 57 | 47 | 0.0 | 0.0 | 0.00 | 0.00 | 0.00 | 83 | 1011.8 |
| 20260501232014 | 57 | 103 | 0.0 | 0.0 | 0.00 | 0.00 | 0.00 | 82 | 1012.0 |
| 20260501231512 | 58 | 51 | 0.0 | 0.0 | 0.00 | 0.00 | 0.00 | 81 | 1012.0 |
| 20260501231010 | 58 | 51 | 0.0 | 0.0 | 0.00 | 0.00 | 0.00 | 78 | 1012.1 |
| 20260501230509 | 58 | 153 | 0.0 | 0.0 | 0.00 | 0.00 | 0.00 | 76 | 1012.1 |
| 20260501230006 | 60 | 119 | 0.9 | 1.7 | 0.00 | 0.00 | 0.00 | 74 | 1012.3 |
| 20260501225503 | 60 | 79 | 0.9 | 0.9 | 0.00 | 0.00 | 0.00 | 67 | 1012.4 |
| 20260501224959 | 60 | 120 | 0.9 | 0.9 | 0.00 | 0.00 | 0.00 | 67 | 1012.1 |
| 20260501224457 | 60 | 126 | 0.9 | 0.9 | 0.00 | 0.00 | 0.00 | 69 | 1012.2 |
| 20260501223954 | 60 | 152 | 0.0 | 0.0 | 0.00 | 0.00 | 0.00 | 67 | 1012.3 |
| 20260501223450 | 61 | 123 | 0.0 | 0.0 | 0.00 | 0.00 | 0.00 | 67 | 1012.3 |
| 20260501222945 | 61 | 139 | 0.0 | 0.0 | 0.00 | 0.00 | 0.00 | 66 | 1012.0 |
| 20260501222443 | 61 | 115 | 0.0 | 0.0 | 0.00 | 0.00 | 0.00 | 67 | 1012.2 |
| 20260501221938 | 61 | 120 | 0.9 | 0.9 | 0.00 | 0.00 | 0.00 | 67 | 1012.0 |
| 20260501221436 | 61 | 115 | 1.7 | 1.7 | 0.00 | 0.00 | 0.00 | 65 | 1012.2 |
| 20260501220934 | 61 | 124 | 1.7 | 1.7 | 0.00 | 0.00 | 0.00 | 66 | 1012.2 |
| 20260501220431 | 61 | 127 | 1.7 | 1.7 | 0.00 | 0.00 | 0.00 | 66 | 1012.3 |
| 20260501215927 | 61 | 125 | 1.7 | 1.7 | 0.00 | 0.00 | 0.00 | 64 | 1012.3 |
| 20260501215424 | 61 | 160 | 0.0 | 0.9 | 0.00 | 0.00 | 0.00 | 66 | 1012.4 |
| 20260501214920 | 61 | 150 | 0.0 | 0.0 | 0.00 | 0.00 | 0.00 | 67 | 1012.3 |
| 20260501214415 | 62 | 146 | 0.9 | 0.9 | 0.00 | 0.00 | 0.00 | 63 | 1012.2 |
| 20260501213910 | 62 | 115 | 1.7 | 1.7 | 0.00 | 0.00 | 0.00 | 61 | 1012.2 |
| 20260501213408 | 62 | 108 | 1.7 | 1.7 | 0.00 | 0.00 | 0.00 | 60 | 1012.2 |
| 20260501212903 | 62 | 145 | 0.0 | 0.9 | 0.00 | 0.00 | 0.00 | 62 | 1012.5 |
| 20260501212400 | 62 | 113 | 0.9 | 0.9 | 0.00 | 0.00 | 0.00 | 59 | 1012.5 |
| 20260501211857 | 62 | 123 | 0.9 | 0.9 | 0.00 | 0.00 | 0.00 | 59 | 1012.4 |
| 20260501211354 | 62 | 124 | 1.7 | 1.7 | 0.00 | 0.00 | 0.00 | 59 | 1012.6 |
| 20260501210852 | 62 | 120 | 0.9 | 1.7 | 0.00 | 0.00 | 0.00 | 60 | 1012.7 |
| 20260501210348 | 63 | 71 | 1.7 | 1.7 | 0.00 | 0.00 | 0.00 | 57 | 1012.7 |
| 20260501205844 | 63 | 76 | 0.0 | 0.0 | 0.00 | 0.00 | 0.00 | 58 | 1012.6 |
| 20260501205342 | 63 | 79 | 0.0 | 0.9 | 0.00 | 0.00 | 0.00 | 58 | 1012.6 |
| 20260501204839 | 64 | 51 | 0.0 | 0.9 | 0.00 | 0.00 | 0.00 | 59 | 1012.9 |
| 20260501204335 | 63 | 73 | 0.0 | 0.0 | 0.00 | 0.00 | 0.00 | 60 | 1012.7 |
| 20260501203831 | 64 | 78 | 0.9 | 0.9 | 0.00 | 0.00 | 0.00 | 56 | 1012.8 |
| 20260501203329 | 64 | 139 | 0.9 | 1.7 | 0.00 | 0.00 | 0.00 | 56 | 1012.5 |
| 20260501202825 | 64 | 100 | 0.9 | 1.7 | 0.00 | 0.00 | 0.00 | 56 | 1012.6 |
| 20260501202323 | 64 | 111 | 0.9 | 0.9 | 0.00 | 0.00 | 0.00 | 57 | 1012.7 |
| 20260501201820 | 63 | 87 | 0.0 | 0.9 | 0.00 | 0.00 | 0.00 | 60 | 1012.7 |
| 20260501201316 | 63 | 64 | 0.0 | 0.0 | 0.00 | 0.00 | 0.00 | 59 | 1012.8 |
| 20260501200813 | 64 | 108 | 2.6 | 4.3 | 0.00 | 0.00 | 0.00 | 58 | 1012.8 |
| 20260501200310 | 64 | 129 | 0.9 | 0.9 | 0.00 | 0.00 | 0.00 | 58 | 1012.9 |
| 20260501195808 | 63 | 49 | 0.0 | 0.0 | 0.00 | 0.00 | 0.00 | 61 | 1013.1 |
| 20260501195305 | 63 | 71 | 0.9 | 0.9 | 0.00 | 0.00 | 0.00 | 59 | 1012.9 |
| 20260501194759 | 64 | 114 | 0.9 | 1.7 | 0.00 | 0.00 | 0.00 | 58 | 1013.3 |
| 20260501194255 | 65 | 110 | 1.7 | 1.7 | 0.00 | 0.00 | 0.00 | 59 | 1013.0 |
| 20260501193752 | 65 | 95 | 1.7 | 1.7 | 0.00 | 0.00 | 0.00 | 60 | 1013.0 |
| 20260501193251 | 65 | 87 | 1.7 | 1.7 | 0.00 | 0.00 | 0.00 | 56 | 1013.3 |
| 20260501192748 | 65 | 131 | 1.7 | 1.7 | 0.00 | 0.00 | 0.00 | 56 | 1013.4 |
| 20260501192244 | 65 | 114 | 0.9 | 1.7 | 0.00 | 0.00 | 0.00 | 55 | 1013.5 |
| 20260501191742 | 66 | 120 | 2.6 | 2.6 | 0.00 | 0.00 | 0.00 | 57 | 1013.5 |
| 20260501191239 | 65 | 117 | 1.7 | 1.7 | 0.00 | 0.00 | 0.00 | 55 | 1013.5 |
| 20260501190736 | 65 | 126 | 3.5 | 4.3 | 0.00 | 0.00 | 0.00 | 56 | 1013.3 |
| 20260501190231 | 65 | 96 | 1.7 | 1.7 | 0.00 | 0.00 | 0.00 | 58 | 1013.3 |
| 20260501185727 | 65 | 99 | 0.9 | 0.9 | 0.00 | 0.00 | 0.00 | 57 | 1013.4 |
| 20260501185223 | 62 | 81 | 0.0 | 0.0 | 0.00 | 0.00 | 0.00 | 62 | 1013.7 |
| 20260501184719 | 62 | 103 | 0.0 | 0.0 | 0.00 | 0.00 | 0.00 | 64 | 1013.9 |
| 20260501184215 | 62 | 67 | 0.0 | 0.9 | 0.00 | 0.00 | 0.00 | 61 | 1013.6 |
| 20260501183711 | 62 | 104 | 0.9 | 0.9 | 0.00 | 0.00 | 0.00 | 59 | 1014.0 |
| 20260501183208 | 63 | 67 | 1.7 | 1.7 | 0.00 | 0.00 | 0.00 | 59 | 1013.8 |
| 20260501182704 | 63 | 119 | 1.7 | 1.7 | 0.00 | 0.00 | 0.00 | 63 | 1014.1 |
| 20260501182201 | 62 | 80 | 0.9 | 0.9 | 0.00 | 0.00 | 0.00 | 61 | 1014.0 |
| 20260501181658 | 62 | 91 | 0.9 | 0.9 | 0.00 | 0.00 | 0.00 | 61 | 1014.0 |
| 20260501181155 | 61 | 92 | 0.0 | 0.0 | 0.00 | 0.00 | 0.00 | 59 | 1014.3 |
| 20260501180653 | 61 | 69 | 0.0 | 0.0 | 0.00 | 0.00 | 0.00 | 62 | 1014.6 |
| 20260501180149 | 61 | 99 | 0.0 | 0.0 | 0.00 | 0.00 | 0.00 | 63 | 1014.5 |
| 20260501175646 | 62 | 132 | 0.9 | 0.9 | 0.00 | 0.00 | 0.00 | 62 | 1014.5 |
| 20260501175143 | 62 | 125 | 0.0 | 0.0 | 0.00 | 0.00 | 0.00 | 63 | 1014.4 |
| 20260501174639 | 63 | 96 | 0.0 | 0.9 | 0.00 | 0.00 | 0.00 | 60 | 1014.5 |
| 20260501174137 | 64 | 87 | 0.9 | 1.7 | 0.00 | 0.00 | 0.00 | 59 | 1014.2 |
| 20260501173635 | 64 | 103 | 1.7 | 1.7 | 0.00 | 0.00 | 0.00 | 60 | 1014.2 |
| 20260501173131 | 63 | 69 | 1.7 | 1.7 | 0.00 | 0.00 | 0.00 | 62 | 1014.1 |
| 20260501172627 | 63 | 126 | 0.9 | 0.9 | 0.00 | 0.00 | 0.00 | 61 | 1014.4 |